(°C)
(°C)
-4°
-4°
-5°
-5°
-6°
-6°
-6°
Α
Α
Α
Α
Α
Α
Α
(χλμ / ω)
27-40
26-40
26-40
27-42
27-43
28-40
29-40
(χιλιοστά)
0
0
0
0
0
0
0
(%)
0
0
0
0
11
13
25

Ανύψωση ήλιου

/ -40.6°
sun-icon
UV 1
07:05
19:04
Φθίνων αμφίκυρτος (φάση σελήνης) (253°)
21:43
13:55

METAR για 51.02°Β 71.47°Α (UACC)

Χρόνος Συνθήκες Θερμοκρασία/
Σημείο δρόσου
Άνεμος Ορατότητα Καιρός Νέφη Πίεση Αλλαγή Ανεπεξέργαστο
VFR 5°C / -6°C 100º 17kt >10km - Clouds and Visibility OK 1014 No Significant change. Runway 04: Clear and dry, , friction coefficient 0.70. UACC 261830Z 10009MPS CAVOK 05/M06 Q1014 R04/0///70 NOSIG RMK QFE729/0973
VFR 5°C / -6°C 90º 17kt >10km - Clouds and Visibility OK 1014 No Significant change. Runway 04: Clear and dry, , friction coefficient 0.70. UACC 261800Z 09009MPS CAVOK 05/M06 Q1014 R04/0///70 NOSIG RMK QFE729/0973
VFR 5°C / -6°C 90º 16kt >10km - Clouds and Visibility OK 1015 No Significant change. Runway 04: Clear and dry, , friction coefficient 0.70. UACC 261730Z 09008MPS CAVOK 05/M06 Q1015 R04/0///70 NOSIG RMK QFE730/0973
VFR 6°C / -6°C 90º 16kt >10km - Clouds and Visibility OK 1015 No Significant change. Runway 04: Clear and dry, , friction coefficient 0.70. UACC 261700Z 09008MPS CAVOK 06/M06 Q1015 R04/0///70 NOSIG RMK QFE730/0973
VFR 6°C / -6°C 90º 16kt >10km - Clouds and Visibility OK 1015 No Significant change. Runway 04: Clear and dry, , friction coefficient 0.70. UACC 261630Z 09008MPS CAVOK 06/M06 Q1015 R04/0///70 NOSIG RMK QFE730/0973
VFR 6°C / -6°C 90º 16kt >10km - Clouds and Visibility OK 1015 No Significant change. Runway 04: Clear and dry, , friction coefficient 0.70. UACC 261600Z 09008MPS CAVOK 06/M06 Q1015 R04/0///70 NOSIG RMK QFE730/0973
VFR 7°C / -7°C 90º 17kt >10km - Clouds and Visibility OK 1015 No Significant change. Runway 04: Clear and dry, , friction coefficient 0.70. UACC 261530Z 09009MPS CAVOK 07/M07 Q1015 R04/0///70 NOSIG RMK QFE730/0974
VFR 8°C / -7°C 90º 19kt >10km - Clouds and Visibility OK 1015 No Significant change. Runway 04: Clear and dry, , friction coefficient 0.70. UACC 261500Z 09010MPS CAVOK 08/M07 Q1015 R04/0///70 NOSIG RMK QFE730/0974
VFR 8°C / -7°C 90º 19kt >10km - Clouds and Visibility OK 1016 No Significant change. Runway 04: Clear and dry, , friction coefficient 0.70. UACC 261430Z 09010MPS CAVOK 08/M07 Q1016 R04/0///70 NOSIG RMK QFE730/0974
VFR 8°C / -6°C 90º 17kt >10km - Clouds and Visibility OK 1016 No Significant change. Runway 04: Clear and dry, , friction coefficient 0.70. UACC 261400Z 09009MPS CAVOK 08/M06 Q1016 R04/0///70 NOSIG RMK QFE730/0974
VFR 8°C / -4°C 90º 16kt >10km - Clouds and Visibility OK 1016 No Significant change. Runway 04: Clear and dry, , friction coefficient 0.70. UACC 261330Z 09008MPS CAVOK 08/M04 Q1016 R04/0///70 NOSIG RMK QFE731/0974
VFR 9°C / -4°C 90º 17kt >10km - Clouds and Visibility OK 1016 No Significant change. Runway 04: Clear and dry, , friction coefficient 0.70. UACC 261300Z 09009MPS CAVOK 09/M04 Q1016 R04/0///70 NOSIG RMK QFE731/0974
VFR 10°C / -2°C 90º 19kt >10km - Clouds and Visibility OK 1016 No Significant change. Runway 04: Clear and dry, , friction coefficient 0.70. UACC 261230Z 09010MPS CAVOK 10/M02 Q1016 R04/0///70 NOSIG RMK QFE731/0975
VFR 11°C / -1°C 100º 16kt >10km - Clouds and Visibility OK 1017 No Significant change. Runway 04: Clear and dry, , friction coefficient 0.70. UACC 261200Z 10008MPS CAVOK 11/M01 Q1017 R04/0///70 NOSIG RMK QFE731/0975
VFR 11°C / -1°C 110º 16kt >10km - Clouds and Visibility OK 1017 No Significant change. Runway 04: Clear and dry, , friction coefficient 0.70. UACC 261130Z 11008MPS CAVOK 11/M01 Q1017 R04/0///70 NOSIG RMK QFE731/0975
VFR 11°C / -1°C 100º 19kt >10km - Clouds and Visibility OK 1017 No Significant change. Runway 04: Clear and dry, , friction coefficient 0.70. UACC 261100Z 10010MPS CAVOK 11/M01 Q1017 R04/0///70 NOSIG RMK QFE731/0975
VFR 12°C / -1°C 90º 17kt >10km - Clouds and Visibility OK 1017 No Significant change. Runway 04: Clear and dry, , friction coefficient 0.70. UACC 261030Z 09009MPS CAVOK 12/M01 Q1017 R04/0///70 NOSIG RMK QFE731/0975
VFR 12°C / -1°C 90º 16kt >10km - Clouds and Visibility OK 1017 No Significant change. Runway 04: Clear and dry, , friction coefficient 0.70. UACC 261000Z 09008MPS CAVOK 12/M01 Q1017 R04/0///70 NOSIG RMK QFE732/0976
VFR 12°C / -1°C 90º 16kt >10km - Clouds and Visibility OK 1018 No Significant change. Runway 04: Clear and dry, , friction coefficient 0.70. UACC 260930Z 09008MPS CAVOK 12/M01 Q1018 R04/0///70 NOSIG RMK QFE732/0976
VFR 12°C / 0°C 90º 19kt >10km - Clouds and Visibility OK 1017 No Significant change. Runway 04: Clear and dry, , friction coefficient 0.70. UACC 260900Z 09010MPS CAVOK 12/M00 Q1017 R04/0///70 NOSIG RMK QFE731/0975
VFR 13°C / 0°C 100º 16kt >10km - Clouds and Visibility OK 1017 No Significant change. Runway 04: Clear and dry, , friction coefficient 0.70. UACC 260830Z 10008MPS CAVOK 13/M00 Q1017 R04/0///70 NOSIG RMK QFE732/0976
VFR 13°C / 0°C 100º 16kt >10km - Clouds and Visibility OK 1018 No Significant change. Runway 04: Clear and dry, , friction coefficient 0.70. UACC 260800Z 10008MPS CAVOK 13/M00 Q1018 R04/0///70 NOSIG RMK QFE732/0976
VFR 13°C / -1°C 90º 17kt >10km - Clouds and Visibility OK 1018 No Significant change. Runway 04: Clear and dry, , friction coefficient 0.70. UACC 260730Z 09009MPS CAVOK 13/M01 Q1018 R04/0///70 NOSIG RMK QFE732/0976
VFR 13°C / 0°C 90º 17kt >10km - Clouds and Visibility OK 1018 No Significant change. Runway 04: Clear and dry, , friction coefficient 0.70. UACC 260700Z 09009MPS CAVOK 13/M00 Q1018 R04/0///70 NOSIG RMK QFE732/0976

VFR

5°C / -6°C

[Περισσότερο]
Άνεμος 100º 17kt
Ορατότητα >10km
Καιρός -
Νέφη Clouds and Visibility OK
Πίεση 1014
Αλλαγή No Significant change. Runway 04: Clear and dry, , friction coefficient 0.70.
Ανεπεξέργαστο UACC 261830Z 10009MPS CAVOK 05/M06 Q1014 R04/0///70 NOSIG RMK QFE729/0973

VFR

5°C / -6°C

[Περισσότερο]
Άνεμος 90º 17kt
Ορατότητα >10km
Καιρός -
Νέφη Clouds and Visibility OK
Πίεση 1014
Αλλαγή No Significant change. Runway 04: Clear and dry, , friction coefficient 0.70.
Ανεπεξέργαστο UACC 261800Z 09009MPS CAVOK 05/M06 Q1014 R04/0///70 NOSIG RMK QFE729/0973

VFR

5°C / -6°C

[Περισσότερο]
Άνεμος 90º 16kt
Ορατότητα >10km
Καιρός -
Νέφη Clouds and Visibility OK
Πίεση 1015
Αλλαγή No Significant change. Runway 04: Clear and dry, , friction coefficient 0.70.
Ανεπεξέργαστο UACC 261730Z 09008MPS CAVOK 05/M06 Q1015 R04/0///70 NOSIG RMK QFE730/0973

VFR

6°C / -6°C

[Περισσότερο]
Άνεμος 90º 16kt
Ορατότητα >10km
Καιρός -
Νέφη Clouds and Visibility OK
Πίεση 1015
Αλλαγή No Significant change. Runway 04: Clear and dry, , friction coefficient 0.70.
Ανεπεξέργαστο UACC 261700Z 09008MPS CAVOK 06/M06 Q1015 R04/0///70 NOSIG RMK QFE730/0973

VFR

6°C / -6°C

[Περισσότερο]
Άνεμος 90º 16kt
Ορατότητα >10km
Καιρός -
Νέφη Clouds and Visibility OK
Πίεση 1015
Αλλαγή No Significant change. Runway 04: Clear and dry, , friction coefficient 0.70.
Ανεπεξέργαστο UACC 261630Z 09008MPS CAVOK 06/M06 Q1015 R04/0///70 NOSIG RMK QFE730/0973

VFR

6°C / -6°C

[Περισσότερο]
Άνεμος 90º 16kt
Ορατότητα >10km
Καιρός -
Νέφη Clouds and Visibility OK
Πίεση 1015
Αλλαγή No Significant change. Runway 04: Clear and dry, , friction coefficient 0.70.
Ανεπεξέργαστο UACC 261600Z 09008MPS CAVOK 06/M06 Q1015 R04/0///70 NOSIG RMK QFE730/0973

VFR

7°C / -7°C

[Περισσότερο]
Άνεμος 90º 17kt
Ορατότητα >10km
Καιρός -
Νέφη Clouds and Visibility OK
Πίεση 1015
Αλλαγή No Significant change. Runway 04: Clear and dry, , friction coefficient 0.70.
Ανεπεξέργαστο UACC 261530Z 09009MPS CAVOK 07/M07 Q1015 R04/0///70 NOSIG RMK QFE730/0974

VFR

8°C / -7°C

[Περισσότερο]
Άνεμος 90º 19kt
Ορατότητα >10km
Καιρός -
Νέφη Clouds and Visibility OK
Πίεση 1015
Αλλαγή No Significant change. Runway 04: Clear and dry, , friction coefficient 0.70.
Ανεπεξέργαστο UACC 261500Z 09010MPS CAVOK 08/M07 Q1015 R04/0///70 NOSIG RMK QFE730/0974

VFR

8°C / -7°C

[Περισσότερο]
Άνεμος 90º 19kt
Ορατότητα >10km
Καιρός -
Νέφη Clouds and Visibility OK
Πίεση 1016
Αλλαγή No Significant change. Runway 04: Clear and dry, , friction coefficient 0.70.
Ανεπεξέργαστο UACC 261430Z 09010MPS CAVOK 08/M07 Q1016 R04/0///70 NOSIG RMK QFE730/0974

VFR

8°C / -6°C

[Περισσότερο]
Άνεμος 90º 17kt
Ορατότητα >10km
Καιρός -
Νέφη Clouds and Visibility OK
Πίεση 1016
Αλλαγή No Significant change. Runway 04: Clear and dry, , friction coefficient 0.70.
Ανεπεξέργαστο UACC 261400Z 09009MPS CAVOK 08/M06 Q1016 R04/0///70 NOSIG RMK QFE730/0974

VFR

8°C / -4°C

[Περισσότερο]
Άνεμος 90º 16kt
Ορατότητα >10km
Καιρός -
Νέφη Clouds and Visibility OK
Πίεση 1016
Αλλαγή No Significant change. Runway 04: Clear and dry, , friction coefficient 0.70.
Ανεπεξέργαστο UACC 261330Z 09008MPS CAVOK 08/M04 Q1016 R04/0///70 NOSIG RMK QFE731/0974

VFR

9°C / -4°C

[Περισσότερο]
Άνεμος 90º 17kt
Ορατότητα >10km
Καιρός -
Νέφη Clouds and Visibility OK
Πίεση 1016
Αλλαγή No Significant change. Runway 04: Clear and dry, , friction coefficient 0.70.
Ανεπεξέργαστο UACC 261300Z 09009MPS CAVOK 09/M04 Q1016 R04/0///70 NOSIG RMK QFE731/0974

VFR

10°C / -2°C

[Περισσότερο]
Άνεμος 90º 19kt
Ορατότητα >10km
Καιρός -
Νέφη Clouds and Visibility OK
Πίεση 1016
Αλλαγή No Significant change. Runway 04: Clear and dry, , friction coefficient 0.70.
Ανεπεξέργαστο UACC 261230Z 09010MPS CAVOK 10/M02 Q1016 R04/0///70 NOSIG RMK QFE731/0975

VFR

11°C / -1°C

[Περισσότερο]
Άνεμος 100º 16kt
Ορατότητα >10km
Καιρός -
Νέφη Clouds and Visibility OK
Πίεση 1017
Αλλαγή No Significant change. Runway 04: Clear and dry, , friction coefficient 0.70.
Ανεπεξέργαστο UACC 261200Z 10008MPS CAVOK 11/M01 Q1017 R04/0///70 NOSIG RMK QFE731/0975

VFR

11°C / -1°C

[Περισσότερο]
Άνεμος 110º 16kt
Ορατότητα >10km
Καιρός -
Νέφη Clouds and Visibility OK
Πίεση 1017
Αλλαγή No Significant change. Runway 04: Clear and dry, , friction coefficient 0.70.
Ανεπεξέργαστο UACC 261130Z 11008MPS CAVOK 11/M01 Q1017 R04/0///70 NOSIG RMK QFE731/0975

VFR

11°C / -1°C

[Περισσότερο]
Άνεμος 100º 19kt
Ορατότητα >10km
Καιρός -
Νέφη Clouds and Visibility OK
Πίεση 1017
Αλλαγή No Significant change. Runway 04: Clear and dry, , friction coefficient 0.70.
Ανεπεξέργαστο UACC 261100Z 10010MPS CAVOK 11/M01 Q1017 R04/0///70 NOSIG RMK QFE731/0975

VFR

12°C / -1°C

[Περισσότερο]
Άνεμος 90º 17kt
Ορατότητα >10km
Καιρός -
Νέφη Clouds and Visibility OK
Πίεση 1017
Αλλαγή No Significant change. Runway 04: Clear and dry, , friction coefficient 0.70.
Ανεπεξέργαστο UACC 261030Z 09009MPS CAVOK 12/M01 Q1017 R04/0///70 NOSIG RMK QFE731/0975

VFR

12°C / -1°C

[Περισσότερο]
Άνεμος 90º 16kt
Ορατότητα >10km
Καιρός -
Νέφη Clouds and Visibility OK
Πίεση 1017
Αλλαγή No Significant change. Runway 04: Clear and dry, , friction coefficient 0.70.
Ανεπεξέργαστο UACC 261000Z 09008MPS CAVOK 12/M01 Q1017 R04/0///70 NOSIG RMK QFE732/0976

VFR

12°C / -1°C

[Περισσότερο]
Άνεμος 90º 16kt
Ορατότητα >10km
Καιρός -
Νέφη Clouds and Visibility OK
Πίεση 1018
Αλλαγή No Significant change. Runway 04: Clear and dry, , friction coefficient 0.70.
Ανεπεξέργαστο UACC 260930Z 09008MPS CAVOK 12/M01 Q1018 R04/0///70 NOSIG RMK QFE732/0976

VFR

12°C / 0°C

[Περισσότερο]
Άνεμος 90º 19kt
Ορατότητα >10km
Καιρός -
Νέφη Clouds and Visibility OK
Πίεση 1017
Αλλαγή No Significant change. Runway 04: Clear and dry, , friction coefficient 0.70.
Ανεπεξέργαστο UACC 260900Z 09010MPS CAVOK 12/M00 Q1017 R04/0///70 NOSIG RMK QFE731/0975

VFR

13°C / 0°C

[Περισσότερο]
Άνεμος 100º 16kt
Ορατότητα >10km
Καιρός -
Νέφη Clouds and Visibility OK
Πίεση 1017
Αλλαγή No Significant change. Runway 04: Clear and dry, , friction coefficient 0.70.
Ανεπεξέργαστο UACC 260830Z 10008MPS CAVOK 13/M00 Q1017 R04/0///70 NOSIG RMK QFE732/0976

VFR

13°C / 0°C

[Περισσότερο]
Άνεμος 100º 16kt
Ορατότητα >10km
Καιρός -
Νέφη Clouds and Visibility OK
Πίεση 1018
Αλλαγή No Significant change. Runway 04: Clear and dry, , friction coefficient 0.70.
Ανεπεξέργαστο UACC 260800Z 10008MPS CAVOK 13/M00 Q1018 R04/0///70 NOSIG RMK QFE732/0976

VFR

13°C / -1°C

[Περισσότερο]
Άνεμος 90º 17kt
Ορατότητα >10km
Καιρός -
Νέφη Clouds and Visibility OK
Πίεση 1018
Αλλαγή No Significant change. Runway 04: Clear and dry, , friction coefficient 0.70.
Ανεπεξέργαστο UACC 260730Z 09009MPS CAVOK 13/M01 Q1018 R04/0///70 NOSIG RMK QFE732/0976

VFR

13°C / 0°C

[Περισσότερο]
Άνεμος 90º 17kt
Ορατότητα >10km
Καιρός -
Νέφη Clouds and Visibility OK
Πίεση 1018
Αλλαγή No Significant change. Runway 04: Clear and dry, , friction coefficient 0.70.
Ανεπεξέργαστο UACC 260700Z 09009MPS CAVOK 13/M00 Q1018 R04/0///70 NOSIG RMK QFE732/0976

TAF για 51.02°Β 71.47°Α (UACC)

From till


Maximum Temperature 7ºC on . Minimum Temperature -1ºC on .
From till Wind 80º 16kt. Gust 25kt. Visibility 10km or more. Scattered Clouds 2000ft. Broken Clouds 3000ft.
Temporarly from till Wind 90º 19kt. Gust 29kt.
Temporarly from till Wind 90º 25kt. Gust 35kt. Visibility 3100m. Light Showers Rain Light Showers Snow . Broken Clouds 1500ft.
Temporarly from till Wind 90º 29kt. Gust 39kt. Visibility 3100m. Light Showers Rain . Broken Clouds 1500ft.

Ανεπεξέργαστο: TAF UACC 261700Z 2618/2718 08008G13MPS 9999 SCT020CB BKN030 TX07/2612Z TNM01/2701Z TEMPO 2618/2622 09010G15MPS TEMPO 2622/2706 09013G18MPS 3100 -SHRASN BKN015CB TEMPO 2706/2718 09015G20MPS 3100 -SHRA BKN015CB

Τρέχουσες εικόνες δορυφόρου και βροχής για 51.02°Β 71.47°Α

Η ένδειξη τοποθεσίας τοποθετείται στο 51.02°Β 71.47°Α. [Περισσότερο]

Οι δορυφορικές εικόνες σε πραγματικό χρόνο συνδυάζουν ορατό φως κατά τη διάρκεια της ημέρας με υπέρυθρη ακτινοβολία κατά τη διάρκεια της νύχτας. Κατά τη διάρκεια της νύχτας, η εικόνα δεν είναι σκοτεινή μιας και η υπέρυθρη ακτινοβολία μπορεί να εντοπίσει τις διαφορές στη θερμοκρασία. Δυστυχώς, είναι δύσκολο να ξεχωρίσουν οι χαμηλές νεφώσεις και η ομίχλη από τις θερμοκρασίες εδάφους και έτσι μπορεί να είναι σχετικά αόρατα κατά τη διάρκεια της νύχτας. Οι εικόνες από τον δορυφόρο Meteosat για την Ευρώπη ενημερώνονται σε πραγματικό χρόνο κάθε 5 λεπτά. Οι εικόνες από τους δορυφόρους GOES-16/GOES-17 (Βόρεια & Λατινική Αμερική) και Himawari (Ασία) ενημερώνονται κάθε 10 λεπτά.

Πνευματική ιδιοκτησία 2021 EUMETSAT / meteoblue. / Πνευματική ιδιοκτησία 2021 meteoblue

Ραντάρ και πρόγνωση υετού μικρής δειάρκειας για 51.02°Β 71.47°Α

Ψιλοβρέχει
Φως
Μέτρια
Βαριά
Πολύ βαρύ
Χαλάζι

Ο δείκτης θέσης τοποθετείται στο 51.02°Β 71.47°Α. Αυτή η κινούμενη εικόνα δείχνει την ραντάρ βροχόπτωσης για την τελευταία ώρα, καθώς και 1πρόγνωση h. Το ψιλόβροχο ή το ελαφρύ χιόνι μπορεί να είναι αόρατο για το ραντάρ. Η ένταση της βροχόπτωσης είναι χρωματικά κωδικοποιημένη και κυμαίνεται από γαλάζιο έως πορτοκαλί.